Simultaneous Nadir Overpasses (SNOs) Predictions

Prediction of SNOs between NOAA-19 and METOP-C Satellite Orbit:

Table of predicted SNOs for the next 14.0 days since TLE Epoch: 10/28/2022
Index Date (NOAA-19) Time (NOAA-19) Lat,Lon (NOAA-19) SZA (NOAA-19 ) Date (METOP-C) Time (METOP-C) Lat,Lon (METOP-C) SZA (METOP-C ) Distance(km) Time Diff (sec)
1 11/02/2022 22:42:49 -80.90, 53.95 82.23 11/02/2022 22:44:03 -80.91, 54.01 82.19 1.53 74
2 11/02/2022 23:33:54 80.90,-138.86 97.78 11/02/2022 23:34:43 80.90,-138.90 97.79 0.74 49
3 11/03/2022 00:24:48 -80.90, 28.70 82.19 11/03/2022 00:25:25 -80.90, 28.53 82.18 3.04 37
4 11/03/2022 01:15:53 80.90,-164.11 97.82 11/03/2022 01:16:04 80.91,-164.02 97.85 2.08 11
5 11/03/2022 02:06:48 -80.90, 3.08 82.18 11/03/2022 02:06:47 -80.90, 3.06 82.18 0.42 1
6 11/03/2022 02:57:52 80.90, 170.64 97.87 11/03/2022 02:57:26 80.90, 170.51 97.85 2.39 26
7 11/03/2022 03:48:47 -80.90, -22.17 82.13 11/03/2022 03:48:08 -80.91, -22.06 82.13 2.35 39
8 11/03/2022 04:39:52 80.90, 145.01 97.88 11/03/2022 04:38:48 80.90, 145.03 97.85 0.39 64



Historial Predications of SNOs between NOAA-19 and METOP-C
